Regional Weather Roundup
Issued by NWS

Home | Current Version | Previous Version | Graphics & Text | Print | Product List | Glossary On
Versions: 1 2 3 4 5 6 7 8 9 10 11 12 13 14 15 16 17 18 19 20 21 22 23 24 25 26 27 28 29 30 31 32 33 34 35 36 37 38 39 40 41 42 43 44 45 46 47 48 49 50
000
ASUS43 KLOT 240403
RWRIL

ILLINOIS REGIONAL WEATHER ROUNDUP
NATIONAL WEATHER SERVICE CHICAGO/ROMEOVILLE IL
1100 PM CDT WED MAY 23 2018

NOTE: "FAIR" INDICATES FEW OR NO CLOUDS BELOW 12,000 FEET WITH NO
SIGNIFICANT WEATHER AND/OR OBSTRUCTIONS TO VISIBILITY.

* THESE STATIONS ARE NOT UNDER NWS QUALITY CONTROL. THEY ALSO MAY NOT
  REPORT WEATHER SUCH AS PRECIPITATION OR FOG.

ILZ001-002-007-009-015-016-024-240500-
NORTHWEST ILLINOIS

CITY           SKY/WX    TMP DP  RH WIND       PRES   REMARKS
MOLINE         FAIR      69  60  73 E5        30.13S
STERLING*      FAIR      67  62  84 E3        30.17R
$$

ILZ003-004-008-010-011-017-018-240500-
NORTH CENTRAL ILLINOIS

CITY           SKY/WX    TMP DP  RH WIND       PRES   REMARKS
ROCKFORD       FAIR      66  56  70 SE3       30.19R
FREEPORT*      FAIR      65  60  85 SE3       30.19S
ROCHELLE*      FAIR      65  60  82 SE6       30.18S
DE KALB*       FAIR      64  53  67 E7        30.20R
$$

ILZ005-006-012>014-019>023-240500-
NORTHEAST ILLINOIS

CITY           SKY/WX    TMP DP  RH WIND       PRES   REMARKS
CHICAGO-OHARE  FAIR      63  50  62 E5        30.18S
CHICAGO-MIDWAY FAIR      62  55  77 E6        30.19S
AURORA         FAIR      66  51  58 E3        30.18S
LANSING*       FAIR      59  55  86 CALM      30.19F
JOLIET*        FAIR      66  47  50 CALM      30.19R
WAUKEGAN       FAIR      56  53  90 CALM      30.18S
DUPAGE AIRPORT FAIR      65  47  52 E3        30.18S
KANKAKEE*      FAIR      62  53  70 NE5       30.19S
WHEELING       FAIR      62  54  74 E3        30.20S
MORRIS*        FAIR      65  51  60 E5        30.17S
NORTHERLY ISL    N/A     55  53  93 NE1         N/A
$$

LMZ740>746-240500-
SOUTHERN LAKE MICHIGAN

STATION/POSITION SKY/WX   TEMP    WIND        PRES    VSBY  WAVE
                          AIR SEA DIR/SP/G                  HT/PER
                          (F)     (DEG/KT/KT) (MB)    (MI)  (FT/S)
SOUTHERN BUOY              48 39  110/  6/  6 1022.8          0
WILMETTE HARBOR            54 53  140/  4/  4   N/A           0
HARRISON CRIB              56     190/  2/  3   N/A
BURNHAM HARBOR             56      CALM  /  3   N/A
CALUMET HARBOR             57      60/  2/  3 1022.0R
BURNS HARBOR               57      70/  5/  5 1022.7S
MICHIGAN CITY              61      80/  3/  4   N/A
MICHIGAN CITY 6N           57 57   90/  4/  4   N/A           0
ST. JOSEPH                 58 55   70/  4/  4 1022.6F         0
$$

ILZ025>027-034>036-040-047-049-050-058-095>099-240500-
WEST-CENTRAL ILLINOIS

CITY           SKY/WX    TMP DP  RH WIND       PRES   REMARKS
QUINCY         CLEAR     74  63  68 CALM      30.11F
GALESBURG*     FAIR      70  58  64 E5        30.15F
MACOMB*        CLEAR     69  62  78 E5        30.16S
JACKSONVILLE*  CLEAR     70  62  74 E5        30.12F
PITTSFIELD*    CLEAR     70  67  89 CALM      30.13S
$$

ILZ028>032-037-038-041>044-048-051>054-059>061-240500-
CENTRAL ILLINOIS

CITY           SKY/WX    TMP DP  RH WIND       PRES   REMARKS
BLOOMINGTON    FAIR      68  50  52 E7        30.16F
DECATUR        FAIR      70  52  52 SE7       30.15S
PEORIA         FAIR      70  59  68 NE7       30.14S
LACON*         FAIR      69  59  68 E6        30.14F
LINCOLN*       FAIR      71  54  54 CALM      30.14S
SPRINGFIELD    FAIR      71  59  65 E3        30.13F
TAYLORVILLE    NOT AVBL
$$

ILZ033-039-045-046-055>057-062-063-240500-
EAST-CENTRAL ILLINOIS

CITY           SKY/WX    TMP DP  RH WIND       PRES   REMARKS
CHAMPAIGN      FAIR      67  54  63 E7        30.16S
DANVILLE*      FAIR      69  55  60 E5        30.15S
RANTOUL*       FAIR      70  57  62 E5        30.17S
MATTOON        FAIR      69  60  73 CALM      30.14F
$$

ILZ079-100>102-240500-
SOUTHWEST ILLINOIS

CITY           SKY/WX    TMP DP  RH WIND       PRES   REMARKS
BELLEVILLE     CLEAR     69  64  83 CALM      30.10S
CAHOKIA*       CLEAR     72  65  78 CALM      30.11S
SPARTA*        CLEAR     70  68  93 CALM      30.13S
$$

ILZ064>066-069>071-074>076-080>082-084>086-088>090-092>094-240500-
SOUTH-CENTRAL ILLINOIS

CITY           SKY/WX    TMP DP  RH WIND       PRES   REMARKS
CARBONDALE     FAIR      68  64  87 CALM      30.11R
CAIRO*         FAIR      71  70  95 CALM      30.10S
EFFINGHAM*     FAIR      66  60  80 CALM      30.16F
MT. VERNON     FAIR      62  61  96 N3        30.12F
CENTRALIA*     CLEAR     68  65  91 CALM      30.12S
SALEM*         FAIR      74  58  58 NE3       30.13F
METROPOLIS*    FAIR      71  69  93 CALM      30.11S
$$

ILZ067-068-072-073-078-083-087-091-240500-
SOUTHEAST ILLINOIS

CITY           SKY/WX    TMP DP  RH WIND       PRES   REMARKS
LAWRENCEVILLE  FAIR      72  60  66 NE6       30.14S
FLORA*         FAIR      72  63  72 CALM      30.13F
FAIRFIELD*     FAIR      72  59  64 CALM      30.12S
HARRISBURG*    FAIR      69  65  89 CALM      30.11S
ROBINSON*      FAIR      65  62  92 CALM      30.16S
CARMI*         FAIR      68  64  85 NE3       30.11S
$$

ABBREVIATIONS USED IN REMARKS
   TC - TEMPERATURE IN CELSIUS
  WCI - WIND CHILL INDEX
   HX - HEAT INDEX
  VSB - VISIBILITY
$$





USA.gov is the U.S. government's official web portal to all federal, state and local government web resources and services.